sat.trackr.live / text

‹ back to catalog

STARLINK-32263

NORAD 60371 · 2024-138S

PAYLOAD ACTIVE UNKNOWN

§ Identity

Operator
Country
US
Launch date
2024-08-04
Launch site
AFWTR
Launch vehicle
Mass (kg)
RCS (m²)

Purposes: comms

External: N2YO · Heavens-Above · Gunter

§ Orbital elements

Epoch: 2026-09-21T20:00:52.473024Z

Period
93.85 min
Inclination
53.1606°
Eccentricity
0.0001329
Mean motion
15.34389043 rev/d
Perigee alt
461.8 km
Apogee alt
463.6 km
Semi-major
6,840.9 km
B*
1.7138e-5
RAAN
117.4373°
Arg perigee
97.3346°
Mean anomaly
262.7808°
Rev number
12,057

§ Raw data

STARLINK-322631 60371U 24138S   26264.83394066  .00000203  00000+0  17138-4 0  99922 60371  53.1606 117.4373 0001329  97.3346 262.7808 15.34389043120571

JSON: /api/v1/satellites/60371 · /tle

For live sub-satellite position, see the globe view (requires WebGL).

§ Visibility from observer

Set your observer location to see the next 7 days of passes ≥ 10°. The values pass through the URL so the page stays shareable.

No JS? Fill the form by hand. The geolocation button needs JavaScript.